Location: Raitis
(47.2167°N, 11.3833°E)
Time: 04:31:30
(UTC+00:00)

Okean 3 - Pass Details

Date: 03 March 2021
Orbit: 576 x 600 km, 82.5° (Epoch: 22 April)

Event Time Altitude Azimuth Distance (km) Brightness Sun altitude
Rises 18:35:52 0° 357° (N) 2,833 7.1 -16.6°
Reaches altitude 10° 18:38:11 10° 4° (N) 1,931 6.1 -17.0°
Maximum altitude 18:42:14 40° 75° (ENE) 879 3.9 -17.6°
Enters shadow 18:42:51 38° 98° (E) 919 3.9 -17.7°
